Meteo Giornale » Osservazioni meteo Gran Bretagna » Manchester

ore: 16:20 - Osservazioni Meteo Manchester
Lat. 53° 21' N Lon. 2° 17' W Alt. 69 metri s.l.m.

sereno

20 °C

Sereno

Temp. 24 Ore

10 °C

20 °C

Ovest/Sud-Ovest

22.2 Km/h

Dew point 12 °C

Umidità 59 %

Visibilità  10 Km

Il sole sorge alle ore 06:18

Il sole tramonta alle ore 19:59

Data e Ora Cielo e Fenomeni T °C DP °C Um. % Pres. hPa Vis. km Vento km/h
Oggi h: 16:20 sereno Sereno 20 12 59 1018 10 O/SO 22.2
Oggi h: 15:50 poco_nuvoloso Poco Nuvoloso 19 13 68 1018 10 SO 7.4
Oggi h: 15:20 coperto_pioggia Pioggia 18 13 72 1018 10 N 5.5
Oggi h: 14:50 coperto Coperto 18 12 67 1018 10 SO 16.7
Oggi h: 14:20 coperto_pioggia Pioggia 18 12 67 1018 10 O 16.7
Oggi h: 13:50 nuvoloso Nuvoloso 20 12 59 1018 10 O/SO 24
Oggi h: 13:20 coperto Coperto 19 11 59 1018 10 O/SO 16.7
Oggi h: 12:50 coperto Coperto 20 11 56 1018 10 O/SO 20.3
Oggi h: 12:20 molto_nuvoloso Molto Nuvoloso 19 11 59 1018 10 O/SO 22.2
Oggi h: 11:50 nuvoloso Nuvoloso 20 12 59 1018 10 SO 20.3
Oggi h: 11:20 nuvoloso Nuvoloso 19 12 63 1018 10 SO 20.3
Oggi h: 10:50 sereno Sereno 18 12 67 1018 10 S/SO 13
Oggi h: 10:20 sereno Sereno 17 12 72 1019 10 S/SO 13
Oggi h: 09:50 sereno Sereno 16 11 72 1019 10 SO 9.3
Oggi h: 09:20 sereno Sereno 15 12 82 1019 10 S/SO 7.4
Oggi h: 08:50 sereno Sereno 14 11 82 1019 10 S 7.4
Oggi h: 08:20 sereno Sereno 13 11 87 1019 10 S 7.4
Oggi h: 07:50 sereno Sereno 12 10 87 1018 10 S 7.4
Oggi h: 07:20 sereno Sereno 11 10 93 1018 10 S 7.4
Oggi h: 06:50 sereno Sereno 11 9 87 1018 10 S 7.4
Oggi h: 06:20 sereno Sereno 10 9 93 1018 10 S 9.3
Oggi h: 05:50 sereno Sereno 10 9 93 1018 10 N 5.5
Oggi h: 05:20 sereno Sereno 11 9 87 1018 10 S 7.4
Oggi h: 04:50 sereno Sereno 11 9 87 1018 10 S 7.4
Oggi h: 04:20 sereno Sereno 11 9 87 1018 10 S 7.4
Oggi h: 03:50 sereno Sereno 11 9 87 1018 10 N 3.7
Oggi h: 03:20 sereno Sereno 11 9 87 1018 10 N 5.5
Oggi h: 02:50 sereno Sereno 11 10 93 1018 10 N 5.5
Oggi h: 02:20 sereno Sereno 11 10 93 1018 10 N 5.5
Oggi h: 01:50 sereno Sereno 11 10 93 1018 10 N 5.5
Oggi h: 01:20 sereno Sereno 11 10 93 1018 10 N 5.5
Oggi h: 00:50 sereno Sereno 11 10 93 1018 10 N 3.7
Oggi h: 00:20 sereno Sereno 11 10 93 1018 10 SO 7.4
Ieri h: 23:50 sereno Sereno 13 11 87 1018 10 SO 9.3
Ieri h: 23:20 sereno Sereno 14 12 87 1018 10 SO 9.3
Ieri h: 22:50 sereno Sereno 13 11 87 1017 10 SO 7.4
Ieri h: 22:20 poco_nuvoloso Poco Nuvoloso 15 11 76 1017 10 SO 9.3
Ieri h: 21:50 sereno Sereno 14 11 82 1017 10 SO 7.4
Ieri h: 21:20 sereno Sereno 15 11 76 1017 10 O/SO 7.4
Ieri h: 20:50 sereno Sereno 15 11 76 1017 10 O/SO 9.3
Ieri h: 20:20 poco_nuvoloso Poco Nuvoloso 16 11 72 1016 10 O/SO 11.1
Ieri h: 19:50 poco_nuvoloso Poco Nuvoloso 16 11 72 1016 10 O 14.8
Ieri h: 19:20 nuvoloso Nuvoloso 16 11 72 1016 10 O 14.8
Ieri h: 18:50 nuvoloso Nuvoloso 17 11 67 1015 10 O 18.5
Ieri h: 18:20 molto_nuvoloso Molto Nuvoloso 17 12 72 1015 10 O 20.3
Ieri h: 17:50 nuvoloso Nuvoloso 17 12 72 1015 10 O 22.2
Ieri h: 17:20 nuvoloso Nuvoloso 17 12 72 1015 10 O 18.5
Ieri h: 16:50 nuvoloso Nuvoloso 17 12 72 1014 10 O 18.5